Time,TemperatureF,DewpointF,PressureIn,WindDirection,WindDirectionDegrees,WindSpeedMPH,WindSpeedGustMPH,Humidity,HourlyPrecipIn,Conditions,Clouds,dailyrainin,SoftwareType,DateUTC
2013-02-04 00:08:00,58.3,27.0,29.97,SSW,203,6.0,8.3,30,0.00,,,-99.99,FreeWX-Wi 1.01,2013-02-04 05:08:00,
2013-02-04 00:13:00,58.1,26.8,29.97,SSW,202,6.0,11.0,30,0.00,,,-99.99,FreeWX-Wi 1.01,2013-02-04 05:13:00,
2013-02-04 00:18:00,58.1,26.8,29.97,SSW,202,6.0,10.5,30,0.00,,,-99.99,FreeWX-Wi 1.01,2013-02-04 05:18:00,
2013-02-04 00:23:00,58.1,27.7,29.97,SSW,202,6.0,10.1,31,0.00,,,-99.99,FreeWX-Wi 1.01,2013-02-04 05:23:00,
2013-02-04 00:28:00,57.9,27.5,29.97,SSW,202,7.0,10.5,31,0.00,,,-99.99,FreeWX-Wi 1.01,2013-02-04 05:28:00,
2013-02-04 00:33:00,57.9,27.5,29.97,SSW,202,7.0,11.0,31,0.00,,,-99.99,FreeWX-Wi 1.01,2013-02-04 05:33:00,
2013-02-04 00:38:00,57.9,27.5,29.97,SSW,201,7.0,8.7,31,0.00,,,-99.99,FreeWX-Wi 1.01,2013-02-04 05:38:00,
2013-02-04 00:43:00,57.9,27.5,29.97,SSW,200,7.0,11.0,31,0.00,,,-99.99,FreeWX-Wi 1.01,2013-02-04 05:43:00,
2013-02-04 00:48:00,57.7,28.0,29.97,SSW,198,7.0,8.7,32,0.00,,,-99.99,FreeWX-Wi 1.01,2013-02-04 05:48:00,
2013-02-04 00:53:00,57.6,27.9,29.97,SSW,198,7.0,9.6,32,0.00,,,-99.99,FreeWX-Wi 1.01,2013-02-04 05:53:00,
2013-02-04 00:58:00,57.6,27.9,29.97,SSW,197,7.0,8.3,32,0.00,,,-99.99,FreeWX-Wi 1.01,2013-02-04 05:58:00,
2013-02-04 01:03:00,57.4,27.9,29.97,SSW,196,7.0,7.0,32,0.00,,,-99.99,FreeWX-Wi 1.01,2013-02-04 06:03:00,
2013-02-04 01:08:00,57.4,27.9,29.97,SSW,196,6.0,6.0,32,0.00,,,-99.99,FreeWX-Wi 1.01,2013-02-04 06:08:00,
2013-02-04 01:13:00,57.2,28.4,29.97,SSW,195,6.0,6.0,33,0.00,,,-99.99,FreeWX-Wi 1.01,2013-02-04 06:13:00,
2013-02-04 01:18:00,57.2,28.4,29.97,SSW,194,6.0,6.0,33,0.00,,,-99.99,FreeWX-Wi 1.01,2013-02-04 06:18:00,
2013-02-04 01:23:00,57.0,28.2,29.97,SSW,194,6.0,6.0,33,0.00,,,-99.99,FreeWX-Wi 1.01,2013-02-04 06:23:00,
2013-02-04 01:28:00,57.0,28.2,29.97,SSW,193,5.0,5.0,33,0.00,,,-99.99,FreeWX-Wi 1.01,2013-02-04 06:28:00,
2013-02-04 01:33:00,57.0,28.9,29.97,SSW,193,5.0,5.8,34,0.00,,,-99.99,FreeWX-Wi 1.01,2013-02-04 06:33:00,
2013-02-04 01:38:00,57.0,28.9,29.97,SSW,192,5.0,6.3,34,0.00,,,-99.99,FreeWX-Wi 1.01,2013-02-04 06:38:00,
2013-02-04 01:43:00,57.0,28.9,29.97,SSW,193,5.0,6.3,34,0.00,,,-99.99,FreeWX-Wi 1.01,2013-02-04 06:43:00,
2013-02-04 01:48:00,57.0,28.9,29.97,SSW,194,5.0,8.3,34,0.00,,,-99.99,FreeWX-Wi 1.01,2013-02-04 06:48:00,
2013-02-04 01:53:00,57.0,28.9,29.97,SSW,195,5.0,8.7,34,0.00,,,-99.99,FreeWX-Wi 1.01,2013-02-04 06:53:00,
2013-02-04 01:58:00,56.8,28.8,29.94,SSW,196,5.0,8.3,34,0.00,,,-99.99,FreeWX-Wi 1.01,2013-02-04 06:58:00,
2013-02-04 02:03:00,56.8,28.8,29.94,SSW,196,4.0,8.1,34,0.00,,,-99.99,FreeWX-Wi 1.01,2013-02-04 07:03:00,
2013-02-04 02:08:00,56.8,28.8,29.94,SSW,196,4.0,8.1,34,0.00,,,-99.99,FreeWX-Wi 1.01,2013-02-04 07:08:00,
2013-02-04 02:13:00,56.8,28.8,29.94,SSW,196,4.0,7.2,34,0.00,,,-99.99,FreeWX-Wi 1.01,2013-02-04 07:13:00,
2013-02-04 02:18:00,56.7,28.6,29.94,SSW,195,4.0,5.8,34,0.00,,,-99.99,FreeWX-Wi 1.01,2013-02-04 07:18:00,
2013-02-04 02:23:00,56.5,28.4,29.94,SSW,194,4.0,4.0,34,0.00,,,-99.99,FreeWX-Wi 1.01,2013-02-04 07:23:00,
2013-02-04 02:28:00,56.3,28.9,29.94,SSW,192,4.0,4.0,35,0.00,,,-99.99,FreeWX-Wi 1.01,2013-02-04 07:28:00,
2013-02-04 02:33:00,55.8,28.6,29.94,South,189,4.0,4.0,35,0.00,,,-99.99,FreeWX-Wi 1.01,2013-02-04 07:33:00,
2013-02-04 02:38:00,55.6,28.4,29.94,South,186,4.0,4.0,35,0.00,,,-99.99,FreeWX-Wi 1.01,2013-02-04 07:38:00,
2013-02-04 02:43:00,55.4,28.2,29.94,South,181,4.0,4.0,35,0.00,,,-99.99,FreeWX-Wi 1.01,2013-02-04 07:43:00,
2013-02-04 02:48:00,55.6,28.4,29.94,South,177,4.0,4.0,35,0.00,,,-99.99,FreeWX-Wi 1.01,2013-02-04 07:48:00,
2013-02-04 02:53:00,55.6,28.4,29.94,South,174,4.0,4.9,35,0.00,,,-99.99,FreeWX-Wi 1.01,2013-02-04 07:53:00,
2013-02-04 02:58:00,55.6,28.4,29.94,South,170,4.0,4.9,35,0.00,,,-99.99,FreeWX-Wi 1.01,2013-02-04 07:58:00,
2013-02-04 03:03:00,55.8,28.6,29.94,SSE,168,4.0,4.0,35,0.00,,,-99.99,FreeWX-Wi 1.01,2013-02-04 08:03:00,
2013-02-04 03:08:00,55.8,28.6,29.94,SSE,167,4.0,4.0,35,0.00,,,-99.99,FreeWX-Wi 1.01,2013-02-04 08:08:00,
2013-02-04 03:13:00,55.6,28.4,29.94,SSE,166,3.0,4.0,35,0.00,,,-99.99,FreeWX-Wi 1.01,2013-02-04 08:13:00,
2013-02-04 03:18:00,55.6,28.4,29.94,SSE,165,3.0,4.9,35,0.00,,,-99.99,FreeWX-Wi 1.01,2013-02-04 08:18:00,
2013-02-04 03:23:00,55.6,28.4,29.94,SSE,165,3.0,8.3,35,0.00,,,-99.99,FreeWX-Wi 1.01,2013-02-04 08:23:00,
2013-02-04 03:28:00,55.6,29.1,29.94,SSE,167,4.0,8.7,36,0.00,,,-99.99,FreeWX-Wi 1.01,2013-02-04 08:28:00,
2013-02-04 03:33:00,55.8,29.3,29.94,South,170,4.0,8.7,36,0.00,,,-99.99,FreeWX-Wi 1.01,2013-02-04 08:33:00,
2013-02-04 03:38:00,55.9,29.3,29.94,South,173,4.0,10.5,36,0.00,,,-99.99,FreeWX-Wi 1.01,2013-02-04 08:38:00,
2013-02-04 03:43:00,55.9,29.3,29.94,South,177,5.0,10.5,36,0.00,,,-99.99,FreeWX-Wi 1.01,2013-02-04 08:43:00,
2013-02-04 03:48:00,56.1,29.5,29.94,South,182,5.0,10.5,36,0.00,,,-99.99,FreeWX-Wi 1.01,2013-02-04 08:48:00,
2013-02-04 03:53:00,56.1,29.5,29.94,South,187,6.0,9.2,36,0.00,,,-99.99,FreeWX-Wi 1.01,2013-02-04 08:53:00,
2013-02-04 03:58:00,56.3,29.7,29.91,South,190,6.0,8.7,36,0.00,,,-99.99,FreeWX-Wi 1.01,2013-02-04 08:58:00,
2013-02-04 04:03:00,56.1,29.5,29.91,South,191,6.0,9.2,36,0.00,,,-99.99,FreeWX-Wi 1.01,2013-02-04 09:03:00,
2013-02-04 04:08:00,56.1,29.5,29.91,SSW,192,7.0,8.7,36,0.00,,,-99.99,FreeWX-Wi 1.01,2013-02-04 09:08:00,
2013-02-04 04:13:00,56.1,29.5,29.91,SSW,192,7.0,8.3,36,0.00,,,-99.99,FreeWX-Wi 1.01,2013-02-04 09:13:00,
2013-02-04 04:18:00,55.9,29.3,29.91,SSW,193,7.0,8.3,36,0.00,,,-99.99,FreeWX-Wi 1.01,2013-02-04 09:18:00,
2013-02-04 04:23:00,55.9,29.3,29.91,SSW,193,7.0,8.3,36,0.00,,,-99.99,FreeWX-Wi 1.01,2013-02-04 09:23:00,
2013-02-04 04:28:00,55.9,29.3,29.91,SSW,193,7.0,8.1,36,0.00,,,-99.99,FreeWX-Wi 1.01,2013-02-04 09:28:00,
2013-02-04 04:33:00,55.8,29.3,29.91,SSW,193,7.0,8.7,36,0.00,,,-99.99,FreeWX-Wi 1.01,2013-02-04 09:33:00,
2013-02-04 04:38:00,55.8,29.3,29.91,SSW,193,7.0,8.7,36,0.00,,,-99.99,FreeWX-Wi 1.01,2013-02-04 09:38:00,
2013-02-04 04:43:00,55.8,29.3,29.91,SSW,193,7.0,8.7,36,0.00,,,-99.99,FreeWX-Wi 1.01,2013-02-04 09:43:00,
2013-02-04 04:48:00,55.6,29.1,29.91,SSW,192,7.0,10.1,36,0.00,,,-99.99,FreeWX-Wi 1.01,2013-02-04 09:48:00,
2013-02-04 04:53:00,55.6,29.1,29.91,SSW,192,7.0,8.7,36,0.00,,,-99.99,FreeWX-Wi 1.01,2013-02-04 09:53:00,
2013-02-04 04:58:00,55.6,29.1,29.91,SSW,192,7.0,8.7,36,0.00,,,-99.99,FreeWX-Wi 1.01,2013-02-04 09:58:00,
2013-02-04 05:03:00,55.6,29.1,29.91,SSW,192,7.0,10.5,36,0.00,,,-99.99,FreeWX-Wi 1.01,2013-02-04 10:03:00,
2013-02-04 05:13:00,55.4,28.9,29.91,SSW,192,7.0,9.2,36,0.00,,,-99.99,FreeWX-Wi 1.01,2013-02-04 10:13:00,
2013-02-04 05:18:00,55.4,28.9,29.91,South,191,7.0,8.3,36,0.00,,,-99.99,FreeWX-Wi 1.01,2013-02-04 10:18:00,
2013-02-04 05:23:00,55.4,28.9,29.91,South,191,7.0,7.0,36,0.00,,,-99.99,FreeWX-Wi 1.01,2013-02-04 10:23:00,
2013-02-04 05:28:00,55.2,29.5,29.91,South,191,7.0,7.0,37,0.00,,,-99.99,FreeWX-Wi 1.01,2013-02-04 10:28:00,
2013-02-04 05:33:00,55.2,29.5,29.91,South,191,7.0,7.0,37,0.00,,,-99.99,FreeWX-Wi 1.01,2013-02-04 10:33:00,
2013-02-04 05:38:00,55.0,29.3,29.91,South,191,6.0,6.3,37,0.00,,,-99.99,FreeWX-Wi 1.01,2013-02-04 10:38:00,
2013-02-04 05:43:00,55.0,29.3,29.91,South,191,6.0,6.0,37,0.00,,,-99.99,FreeWX-Wi 1.01,2013-02-04 10:43:00,
2013-02-04 05:48:00,54.9,29.1,29.91,South,191,6.0,6.3,37,0.00,,,-99.99,FreeWX-Wi 1.01,2013-02-04 10:48:00,
2013-02-04 05:53:00,54.9,29.1,29.91,South,191,6.0,6.3,37,0.00,,,-99.99,FreeWX-Wi 1.01,2013-02-04 10:53:00,
2013-02-04 05:58:00,54.9,29.1,29.91,South,191,6.0,6.0,37,0.00,,,-99.99,FreeWX-Wi 1.01,2013-02-04 10:58:00,
2013-02-04 06:03:00,54.7,28.9,29.91,South,191,5.0,6.3,37,0.00,,,-99.99,FreeWX-Wi 1.01,2013-02-04 11:03:00,
2013-02-04 06:08:00,54.7,28.9,29.88,South,191,5.0,6.3,37,0.00,,,-99.99,FreeWX-Wi 1.01,2013-02-04 11:08:00,
2013-02-04 06:13:00,54.5,28.8,29.88,South,191,5.0,6.3,37,0.00,,,-99.99,FreeWX-Wi 1.01,2013-02-04 11:13:00,
2013-02-04 06:18:00,54.5,28.8,29.88,South,191,5.0,6.7,37,0.00,,,-99.99,FreeWX-Wi 1.01,2013-02-04 11:18:00,
2013-02-04 06:23:00,54.5,28.8,29.88,South,191,5.0,5.4,37,0.00,,,-99.99,FreeWX-Wi 1.01,2013-02-04 11:23:00,
2013-02-04 06:28:00,54.5,28.8,29.88,SSW,192,5.0,7.6,37,0.00,,,-99.99,FreeWX-Wi 1.01,2013-02-04 11:28:00,
2013-02-04 06:33:00,54.5,29.5,29.88,SSW,193,4.0,5.4,38,0.00,,,-99.99,FreeWX-Wi 1.01,2013-02-04 11:33:00,
2013-02-04 06:38:00,54.5,29.5,29.91,SSW,194,4.0,4.0,38,0.00,,,-99.99,FreeWX-Wi 1.01,2013-02-04 11:38:00,
2013-02-04 06:43:00,54.7,29.7,29.91,SSW,196,4.0,4.0,38,0.00,,,-99.99,FreeWX-Wi 1.01,2013-02-04 11:43:00,
2013-02-04 06:48:00,54.7,29.7,29.91,SSW,197,4.0,5.4,38,0.00,,,-99.99,FreeWX-Wi 1.01,2013-02-04 11:48:00,
2013-02-04 06:53:00,54.7,29.7,29.91,SSW,198,4.0,4.0,38,0.00,,,-99.99,FreeWX-Wi 1.01,2013-02-04 11:53:00,
2013-02-04 06:58:00,54.7,29.7,29.91,SSW,202,4.0,4.0,38,0.00,,,-99.99,FreeWX-Wi 1.01,2013-02-04 11:58:00,
2013-02-04 07:03:00,54.9,29.7,29.91,SSW,204,4.0,4.0,38,0.00,,,-99.99,FreeWX-Wi 1.01,2013-02-04 12:03:00,
2013-02-04 07:08:00,54.9,29.7,29.88,SSW,206,4.0,4.0,38,0.00,,,-99.99,FreeWX-Wi 1.01,2013-02-04 12:08:00,
2013-02-04 07:13:00,54.9,29.7,29.88,SSW,208,4.0,4.9,38,0.00,,,-99.99,FreeWX-Wi 1.01,2013-02-04 12:13:00,
2013-02-04 07:18:00,54.9,29.7,29.88,SSW,211,3.0,3.6,38,0.00,,,-99.99,FreeWX-Wi 1.01,2013-02-04 12:18:00,
2013-02-04 07:23:00,54.9,29.7,29.91,SW,214,3.0,3.0,38,0.00,,,-99.99,FreeWX-Wi 1.01,2013-02-04 12:23:00,
2013-02-04 07:28:00,54.7,29.7,29.91,SW,216,2.0,3.1,38,0.00,,,-99.99,FreeWX-Wi 1.01,2013-02-04 12:28:00,
2013-02-04 07:33:00,54.7,29.7,29.91,SW,218,2.0,2.7,38,0.00,,,-99.99,FreeWX-Wi 1.01,2013-02-04 12:33:00,
2013-02-04 07:38:00,54.7,29.7,29.91,SW,220,2.0,3.6,38,0.00,,,-99.99,FreeWX-Wi 1.01,2013-02-04 12:38:00,
2013-02-04 07:43:00,54.5,29.5,29.91,SW,221,2.0,0.0,38,0.00,,,-99.99,FreeWX-Wi 1.01,2013-02-04 12:43:00,
2013-02-04 07:48:00,54.3,29.3,29.91,SW,223,2.0,0.0,38,0.00,,,-99.99,FreeWX-Wi 1.01,2013-02-04 12:48:00,
2013-02-04 07:53:00,54.1,29.1,29.91,SW,223,1.0,0.0,38,0.00,,,-99.99,FreeWX-Wi 1.01,2013-02-04 12:53:00,
2013-02-04 07:58:00,54.1,29.1,29.91,SW,224,1.0,0.0,38,0.00,,,-99.99,FreeWX-Wi 1.01,2013-02-04 12:58:00,
2013-02-04 08:03:00,54.0,29.7,29.91,SW,223,1.0,0.0,39,0.00,,,-99.99,FreeWX-Wi 1.01,2013-02-04 13:03:00,
2013-02-04 08:08:00,54.0,29.7,29.91,North,-999,0.0,0.0,39,0.00,,,-99.99,FreeWX-Wi 1.01,2013-02-04 13:08:00,
2013-02-04 08:13:00,53.8,29.5,29.91,North,-999,0.0,0.0,39,0.00,,,-99.99,FreeWX-Wi 1.01,2013-02-04 13:13:00,
2013-02-04 08:18:00,53.6,29.3,29.91,North,-999,0.0,3.1,39,0.00,,,-99.99,FreeWX-Wi 1.01,2013-02-04 13:18:00,
2013-02-04 08:23:00,53.4,29.1,29.91,North,-999,0.0,2.7,39,0.00,,,-99.99,FreeWX-Wi 1.01,2013-02-04 13:23:00,
2013-02-04 08:29:00,53.1,28.8,29.91,North,-999,0.0,2.7,39,0.00,,,-99.99,FreeWX-Wi 1.01,2013-02-04 13:29:00,
2013-02-04 08:34:00,52.9,28.6,29.91,North,-999,0.0,0.0,39,0.00,,,-99.99,FreeWX-Wi 1.01,2013-02-04 13:34:00,
2013-02-04 08:39:00,52.7,29.1,29.91,North,-999,0.0,0.0,40,0.00,,,-99.99,FreeWX-Wi 1.01,2013-02-04 13:39:00,
2013-02-04 08:44:00,52.5,28.9,29.91,North,-999,0.0,0.0,40,0.00,,,-99.99,FreeWX-Wi 1.01,2013-02-04 13:44:00,
2013-02-04 08:49:00,52.3,28.8,29.91,North,-999,0.0,0.0,40,0.00,,,-99.99,FreeWX-Wi 1.01,2013-02-04 13:49:00,
2013-02-04 08:54:00,52.3,28.8,29.91,North,-999,0.0,0.0,40,0.00,,,-99.99,FreeWX-Wi 1.01,2013-02-04 13:54:00,
2013-02-04 08:59:00,52.5,28.9,29.91,North,-999,0.0,0.0,40,0.00,,,-99.99,FreeWX-Wi 1.01,2013-02-04 13:59:00,
2013-02-04 09:04:00,52.9,29.8,29.91,North,-999,0.0,0.0,41,0.00,,,-99.99,FreeWX-Wi 1.01,2013-02-04 14:04:00,
2013-02-04 09:09:00,53.2,30.2,29.91,North,-999,0.0,2.2,41,0.00,,,-99.99,FreeWX-Wi 1.01,2013-02-04 14:09:00,
2013-02-04 09:14:00,53.2,30.2,29.91,North,-999,0.0,2.7,41,0.00,,,-99.99,FreeWX-Wi 1.01,2013-02-04 14:14:00,
2013-02-04 09:19:00,53.1,30.0,29.91,North,-999,0.0,0.0,41,0.00,,,-99.99,FreeWX-Wi 1.01,2013-02-04 14:19:00,
2013-02-04 09:24:00,53.1,30.0,29.91,North,-999,0.0,0.0,41,0.00,,,-99.99,FreeWX-Wi 1.01,2013-02-04 14:24:00,
2013-02-04 09:29:00,53.6,30.6,29.91,North,-999,0.0,0.0,41,0.00,,,-99.99,FreeWX-Wi 1.01,2013-02-04 14:29:00,
2013-02-04 09:34:00,54.7,32.5,29.91,North,-999,0.0,4.0,43,0.00,,,-99.99,FreeWX-Wi 1.01,2013-02-04 14:34:00,
2013-02-04 09:39:00,56.1,33.3,29.91,North,-999,0.0,4.0,42,0.00,,,-99.99,FreeWX-Wi 1.01,2013-02-04 14:39:00,
2013-02-04 09:44:00,57.2,33.1,29.91,North,-999,0.0,5.4,40,0.00,,,-99.99,FreeWX-Wi 1.01,2013-02-04 14:44:00,
2013-02-04 09:49:00,58.6,33.1,29.91,North,-999,0.0,5.4,38,0.00,,,-99.99,FreeWX-Wi 1.01,2013-02-04 14:49:00,
2013-02-04 09:54:00,59.7,32.7,29.91,SW,234,1.0,5.8,36,0.00,,,-99.99,FreeWX-Wi 1.01,2013-02-04 14:54:00,
2013-02-04 09:59:00,60.6,32.9,29.91,WSW,237,1.0,5.8,35,0.00,,,-99.99,FreeWX-Wi 1.01,2013-02-04 14:59:00,
2013-02-04 10:04:00,61.5,32.9,29.91,WSW,240,1.0,5.8,34,0.00,,,-99.99,FreeWX-Wi 1.01,2013-02-04 15:04:00,
2013-02-04 10:09:00,62.1,32.5,29.94,WSW,243,1.0,10.1,33,0.00,,,-99.99,FreeWX-Wi 1.01,2013-02-04 15:09:00,
2013-02-04 10:14:00,62.6,31.5,29.94,WSW,246,2.0,7.6,31,0.00,,,-99.99,FreeWX-Wi 1.01,2013-02-04 15:14:00,
2013-02-04 10:19:00,63.3,32.2,29.94,WSW,249,2.0,7.6,31,0.00,,,-99.99,FreeWX-Wi 1.01,2013-02-04 15:19:00,
2013-02-04 10:24:00,64.0,32.0,29.94,WSW,252,2.0,7.6,30,0.00,,,-99.99,FreeWX-Wi 1.01,2013-02-04 15:24:00,
2013-02-04 10:29:00,64.6,30.7,29.94,WSW,256,3.0,7.6,28,0.00,,,-99.99,FreeWX-Wi 1.01,2013-02-04 15:29:00,
2013-02-04 10:34:00,65.1,31.3,29.94,WSW,257,3.0,8.1,28,0.00,,,-99.99,FreeWX-Wi 1.01,2013-02-04 15:34:00,
2013-02-04 10:39:00,65.7,30.7,29.94,West,260,4.0,7.6,27,0.00,,,-99.99,FreeWX-Wi 1.01,2013-02-04 15:39:00,
2013-02-04 10:44:00,65.8,30.9,29.94,West,264,4.0,10.5,27,0.00,,,-99.99,FreeWX-Wi 1.01,2013-02-04 15:44:00,
2013-02-04 10:49:00,66.4,30.4,29.94,West,265,4.0,10.1,26,0.00,,,-99.99,FreeWX-Wi 1.01,2013-02-04 15:49:00,
2013-02-04 10:54:00,66.9,30.9,29.94,West,268,5.0,7.6,26,0.00,,,-99.99,FreeWX-Wi 1.01,2013-02-04 15:54:00,
2013-02-04 10:59:00,67.5,30.4,29.94,West,270,5.0,11.0,25,0.00,,,-99.99,FreeWX-Wi 1.01,2013-02-04 15:59:00,
2013-02-04 11:04:00,67.8,30.7,29.94,West,271,5.0,9.6,25,0.00,,,-99.99,FreeWX-Wi 1.01,2013-02-04 16:04:00,
2013-02-04 11:09:00,68.4,30.2,29.94,West,271,5.0,10.1,24,0.00,,,-99.99,FreeWX-Wi 1.01,2013-02-04 16:09:00,
2013-02-04 11:14:00,68.7,30.4,29.94,West,271,5.0,10.1,24,0.00,,,-99.99,FreeWX-Wi 1.01,2013-02-04 16:14:00,
2013-02-04 11:19:00,69.3,30.9,29.94,West,273,5.0,11.0,24,0.00,,,-99.99,FreeWX-Wi 1.01,2013-02-04 16:19:00,
2013-02-04 11:24:00,69.6,30.2,29.94,West,273,5.0,8.7,23,0.00,,,-99.99,FreeWX-Wi 1.01,2013-02-04 16:24:00,
2013-02-04 11:29:00,70.0,30.6,29.94,West,274,5.0,8.7,23,0.00,,,-99.99,FreeWX-Wi 1.01,2013-02-04 16:29:00,
2013-02-04 11:34:00,70.5,30.9,29.94,West,275,6.0,11.0,23,0.00,,,-99.99,FreeWX-Wi 1.01,2013-02-04 16:34:00,
2013-02-04 11:39:00,71.1,31.5,29.91,West,277,6.0,8.7,23,0.00,,,-99.99,FreeWX-Wi 1.01,2013-02-04 16:39:00,
2013-02-04 11:44:00,71.4,31.6,29.91,West,277,6.0,7.6,23,0.00,,,-99.99,FreeWX-Wi 1.01,2013-02-04 16:44:00,
2013-02-04 11:49:00,72.0,31.1,29.91,West,279,6.0,10.1,22,0.00,,,-99.99,FreeWX-Wi 1.01,2013-02-04 16:49:00,
2013-02-04 11:54:00,72.3,31.3,29.91,West,281,6.0,8.1,22,0.00,,,-99.99,FreeWX-Wi 1.01,2013-02-04 16:54:00,
2013-02-04 11:59:00,72.9,31.8,29.91,WNW,282,6.0,12.8,22,0.00,,,-99.99,FreeWX-Wi 1.01,2013-02-04 16:59:00,
2013-02-04 12:04:00,73.2,32.0,29.91,WNW,283,6.0,11.0,22,0.00,,,-99.99,FreeWX-Wi 1.01,2013-02-04 17:04:00,
2013-02-04 12:09:00,73.4,31.1,29.91,WNW,284,6.0,8.7,21,0.00,,,-99.99,FreeWX-Wi 1.01,2013-02-04 17:09:00,
2013-02-04 12:14:00,73.2,32.0,29.91,WNW,284,6.0,8.1,22,0.00,,,-99.99,FreeWX-Wi 1.01,2013-02-04 17:14:00,
2013-02-04 12:19:00,73.0,30.7,29.91,WNW,287,7.0,13.2,21,0.00,,,-99.99,FreeWX-Wi 1.01,2013-02-04 17:19:00,
2013-02-04 12:24:00,73.0,30.7,29.91,WNW,287,7.0,8.3,21,0.00,,,-99.99,FreeWX-Wi 1.01,2013-02-04 17:24:00,
2013-02-04 12:29:00,73.2,30.9,29.91,WNW,289,7.0,8.1,21,0.00,,,-99.99,FreeWX-Wi 1.01,2013-02-04 17:29:00,
2013-02-04 12:34:00,73.4,31.1,29.91,WNW,292,7.0,8.1,21,0.00,,,-99.99,FreeWX-Wi 1.01,2013-02-04 17:34:00,
2013-02-04 12:39:00,73.8,31.5,29.91,WNW,293,7.0,13.2,21,0.00,,,-99.99,FreeWX-Wi 1.01,2013-02-04 17:39:00,
2013-02-04 12:44:00,74.3,31.8,29.91,WNW,294,7.0,10.1,21,0.00,,,-99.99,FreeWX-Wi 1.01,2013-02-04 17:44:00,
2013-02-04 12:49:00,74.3,31.8,29.91,WNW,296,7.0,9.6,21,0.00,,,-99.99,FreeWX-Wi 1.01,2013-02-04 17:49:00,
2013-02-04 12:54:00,74.5,28.2,29.91,WNW,296,7.0,8.7,18,0.00,,,-99.99,FreeWX-Wi 1.01,2013-02-04 17:54:00,
2013-02-04 12:59:00,75.0,28.6,29.91,WNW,296,7.0,15.0,18,0.00,,,-99.99,FreeWX-Wi 1.01,2013-02-04 17:59:00,
2013-02-04 13:04:00,75.2,28.8,29.91,WNW,296,7.0,10.1,18,0.00,,,-99.99,FreeWX-Wi 1.01,2013-02-04 18:04:00,
2013-02-04 13:09:00,75.4,28.9,29.91,WNW,296,7.0,12.3,18,0.00,,,-99.99,FreeWX-Wi 1.01,2013-02-04 18:09:00,
2013-02-04 13:14:00,75.7,29.3,29.91,WNW,297,7.0,8.7,18,0.00,,,-99.99,FreeWX-Wi 1.01,2013-02-04 18:14:00,
2013-02-04 13:19:00,75.7,29.3,29.91,WNW,296,7.0,8.1,18,0.00,,,-99.99,FreeWX-Wi 1.01,2013-02-04 18:19:00,
2013-02-04 13:24:00,76.1,29.5,29.88,WNW,295,7.0,9.6,18,0.00,,,-99.99,FreeWX-Wi 1.01,2013-02-04 18:24:00,
2013-02-04 13:29:00,76.3,25.2,29.88,WNW,296,7.0,10.5,15,0.00,,,-99.99,FreeWX-Wi 1.01,2013-02-04 18:29:00,
2013-02-04 13:34:00,76.3,25.2,29.88,WNW,298,7.0,8.1,15,0.00,,,-99.99,FreeWX-Wi 1.01,2013-02-04 18:34:00,
2013-02-04 13:39:00,76.1,25.2,29.88,WNW,299,7.0,8.7,15,0.00,,,-99.99,FreeWX-Wi 1.01,2013-02-04 18:39:00,
2013-02-04 13:44:00,76.3,25.2,29.88,WNW,296,7.0,11.0,15,0.00,,,-99.99,FreeWX-Wi 1.01,2013-02-04 18:44:00,
2013-02-04 13:49:00,76.1,25.2,29.88,WNW,296,7.0,8.7,15,0.00,,,-99.99,FreeWX-Wi 1.01,2013-02-04 18:49:00,
2013-02-04 13:54:00,75.7,24.8,29.88,WNW,298,7.0,11.0,15,0.00,,,-99.99,FreeWX-Wi 1.01,2013-02-04 18:54:00,
2013-02-04 13:59:00,75.6,24.6,29.88,WNW,297,7.0,10.1,15,0.00,,,-99.99,FreeWX-Wi 1.01,2013-02-04 18:59:00,
2013-02-04 14:04:00,75.6,24.6,29.88,WNW,298,7.0,11.0,15,0.00,,,-99.99,FreeWX-Wi 1.01,2013-02-04 19:04:00,
2013-02-04 14:09:00,75.7,24.8,29.88,WNW,299,7.0,11.0,15,0.00,,,-99.99,FreeWX-Wi 1.01,2013-02-04 19:09:00,
2013-02-04 14:14:00,75.9,25.0,29.88,WNW,299,7.0,13.2,15,0.00,,,-99.99,FreeWX-Wi 1.01,2013-02-04 19:14:00,
2013-02-04 14:19:00,76.3,25.2,29.88,WNW,299,7.0,8.7,15,0.00,,,-99.99,FreeWX-Wi 1.01,2013-02-04 19:19:00,
2013-02-04 14:24:00,76.5,25.3,29.85,WNW,300,7.0,11.0,15,0.00,,,-99.99,FreeWX-Wi 1.01,2013-02-04 19:24:00,
2013-02-04 14:29:00,76.5,25.3,29.85,WNW,300,7.0,8.7,15,0.00,,,-99.99,FreeWX-Wi 1.01,2013-02-04 19:29:00,
2013-02-04 14:34:00,76.5,25.3,29.85,WNW,300,7.0,16.3,15,0.00,,,-99.99,FreeWX-Wi 1.01,2013-02-04 19:34:00,
2013-02-04 14:39:00,76.5,25.3,29.85,WNW,299,7.0,8.7,15,0.00,,,-99.99,FreeWX-Wi 1.01,2013-02-04 19:39:00,
2013-02-04 14:44:00,76.5,25.3,29.85,WNW,299,7.0,9.6,15,0.00,,,-99.99,FreeWX-Wi 1.01,2013-02-04 19:44:00,
2013-02-04 14:49:00,76.5,25.3,29.85,WNW,298,7.0,10.5,15,0.00,,,-99.99,FreeWX-Wi 1.01,2013-02-04 19:49:00,
2013-02-04 14:54:00,76.3,25.2,29.85,WNW,297,7.0,14.5,15,0.00,,,-99.99,FreeWX-Wi 1.01,2013-02-04 19:54:00,
2013-02-04 14:59:00,76.5,25.3,29.85,WNW,297,8.0,12.8,15,0.00,,,-99.99,FreeWX-Wi 1.01,2013-02-04 19:59:00,
2013-02-04 15:04:00,76.6,25.5,29.85,WNW,297,8.0,12.8,15,0.00,,,-99.99,FreeWX-Wi 1.01,2013-02-04 20:04:00,
2013-02-04 15:09:00,76.6,25.5,29.85,WNW,297,8.0,11.0,15,0.00,,,-99.99,FreeWX-Wi 1.01,2013-02-04 20:09:00,
2013-02-04 15:14:00,76.6,25.5,29.85,WNW,297,8.0,12.3,15,0.00,,,-99.99,FreeWX-Wi 1.01,2013-02-04 20:14:00,
2013-02-04 15:19:00,76.1,25.2,29.85,WNW,298,8.0,10.1,15,0.00,,,-99.99,FreeWX-Wi 1.01,2013-02-04 20:19:00,
2013-02-04 15:24:00,75.7,24.8,29.85,WNW,297,8.0,13.2,15,0.00,,,-99.99,FreeWX-Wi 1.01,2013-02-04 20:24:00,
2013-02-04 15:29:00,75.2,24.4,29.85,WNW,299,8.0,10.1,15,0.00,,,-99.99,FreeWX-Wi 1.01,2013-02-04 20:29:00,
2013-02-04 15:34:00,74.3,25.2,29.85,WNW,300,8.0,8.7,16,0.00,,,-99.99,FreeWX-Wi 1.01,2013-02-04 20:34:00,
2013-02-04 15:39:00,74.3,25.2,29.85,WNW,302,8.0,11.0,16,0.00,,,-99.99,FreeWX-Wi 1.01,2013-02-04 20:39:00,
2013-02-04 15:44:00,74.3,25.2,29.85,WNW,303,8.0,15.0,16,0.00,,,-99.99,FreeWX-Wi 1.01,2013-02-04 20:44:00,
2013-02-04 15:49:00,74.1,25.0,29.85,WNW,303,8.0,9.6,16,0.00,,,-99.99,FreeWX-Wi 1.01,2013-02-04 20:49:00,
2013-02-04 15:54:00,73.8,24.8,29.82,NW,306,8.0,10.5,16,0.00,,,-99.99,FreeWX-Wi 1.01,2013-02-04 20:54:00,
2013-02-04 15:59:00,73.6,24.6,29.82,NW,309,8.0,10.5,16,0.00,,,-99.99,FreeWX-Wi 1.01,2013-02-04 20:59:00,
2013-02-04 16:04:00,73.6,24.6,29.82,NW,309,8.0,8.1,16,0.00,,,-99.99,FreeWX-Wi 1.01,2013-02-04 21:04:00,
2013-02-04 16:09:00,73.2,24.3,29.82,NW,310,8.0,8.7,16,0.00,,,-99.99,FreeWX-Wi 1.01,2013-02-04 21:09:00,
2013-02-04 16:14:00,73.2,24.3,29.82,NW,312,8.0,12.3,16,0.00,,,-99.99,FreeWX-Wi 1.01,2013-02-04 21:14:00,
2013-02-04 16:19:00,73.2,24.3,29.82,NW,316,7.0,8.7,16,0.00,,,-99.99,FreeWX-Wi 1.01,2013-02-04 21:19:00,
2013-02-04 16:24:00,73.4,24.4,29.82,NW,318,7.0,10.1,16,0.00,,,-99.99,FreeWX-Wi 1.01,2013-02-04 21:24:00,
2013-02-04 16:29:00,73.6,24.6,29.82,NW,317,7.0,12.8,16,0.00,,,-99.99,FreeWX-Wi 1.01,2013-02-04 21:29:00,
2013-02-04 16:34:00,73.6,24.6,29.82,NW,317,7.0,10.1,16,0.00,,,-99.99,FreeWX-Wi 1.01,2013-02-04 21:34:00,
2013-02-04 16:39:00,73.6,24.6,29.82,NW,317,7.0,8.7,16,0.00,,,-99.99,FreeWX-Wi 1.01,2013-02-04 21:39:00,
2013-02-04 16:44:00,73.6,24.6,29.82,NW,318,7.0,13.6,16,0.00,,,-99.99,FreeWX-Wi 1.01,2013-02-04 21:44:00,
2013-02-04 16:49:00,73.6,24.6,29.82,NW,318,7.0,10.5,16,0.00,,,-99.99,FreeWX-Wi 1.01,2013-02-04 21:49:00,
2013-02-04 16:54:00,73.6,24.6,29.85,NW,318,7.0,8.7,16,0.00,,,-99.99,FreeWX-Wi 1.01,2013-02-04 21:54:00,
2013-02-04 16:59:00,73.4,24.4,29.85,NW,318,7.0,13.2,16,0.00,,,-99.99,FreeWX-Wi 1.01,2013-02-04 21:59:00,
2013-02-04 17:04:00,73.4,24.4,29.85,NW,318,7.0,12.3,16,0.00,,,-99.99,FreeWX-Wi 1.01,2013-02-04 22:04:00,
2013-02-04 17:09:00,73.2,24.3,29.85,NW,318,7.0,8.7,16,0.00,,,-99.99,FreeWX-Wi 1.01,2013-02-04 22:09:00,
2013-02-04 17:14:00,72.9,24.1,29.85,NW,319,7.0,13.2,16,0.00,,,-99.99,FreeWX-Wi 1.01,2013-02-04 22:14:00,
2013-02-04 17:19:00,72.7,23.9,29.85,NW,319,7.0,8.1,16,0.00,,,-99.99,FreeWX-Wi 1.01,2013-02-04 22:19:00,
2013-02-04 17:24:00,72.5,20.7,29.85,NW,320,7.0,10.1,14,0.00,,,-99.99,FreeWX-Wi 1.01,2013-02-04 22:24:00,
2013-02-04 17:29:00,72.1,20.3,29.85,NW,321,7.0,7.6,14,0.00,,,-99.99,FreeWX-Wi 1.01,2013-02-04 22:29:00,
2013-02-04 17:34:00,71.8,19.9,29.85,NW,322,7.0,8.7,14,0.00,,,-99.99,FreeWX-Wi 1.01,2013-02-04 22:34:00,
2013-02-04 17:39:00,71.4,19.8,29.85,NW,323,7.0,8.1,14,0.00,,,-99.99,FreeWX-Wi 1.01,2013-02-04 22:39:00,
2013-02-04 17:44:00,71.1,19.4,29.85,NW,323,7.0,8.3,14,0.00,,,-99.99,FreeWX-Wi 1.01,2013-02-04 22:44:00,
2013-02-04 17:49:00,70.9,19.4,29.85,NW,323,7.0,8.3,14,0.00,,,-99.99,FreeWX-Wi 1.01,2013-02-04 22:49:00,
2013-02-04 17:54:00,70.5,19.0,29.85,NW,322,7.0,7.6,14,0.00,,,-99.99,FreeWX-Wi 1.01,2013-02-04 22:54:00,
2013-02-04 17:59:00,70.3,18.9,29.85,NW,322,7.0,7.0,14,0.00,,,-99.99,FreeWX-Wi 1.01,2013-02-04 22:59:00,
2013-02-04 18:04:00,70.2,18.7,29.85,NW,322,7.0,7.0,14,0.00,,,-99.99,FreeWX-Wi 1.01,2013-02-04 23:04:00,
2013-02-04 18:09:00,69.8,18.5,29.85,NW,323,7.0,7.0,14,0.00,,,-99.99,FreeWX-Wi 1.01,2013-02-04 23:09:00,
2013-02-04 18:14:00,69.6,19.9,29.85,NW,323,7.0,8.3,15,0.00,,,-99.99,FreeWX-Wi 1.01,2013-02-04 23:14:00,
2013-02-04 18:19:00,69.4,19.8,29.85,NW,324,7.0,8.7,15,0.00,,,-99.99,FreeWX-Wi 1.01,2013-02-04 23:19:00,
2013-02-04 18:24:00,69.1,19.6,29.85,NW,325,6.0,8.3,15,0.00,,,-99.99,FreeWX-Wi 1.01,2013-02-04 23:24:00,
2013-02-04 18:29:00,68.9,19.4,29.85,NW,326,6.0,8.7,15,0.00,,,-99.99,FreeWX-Wi 1.01,2013-02-04 23:29:00,
2013-02-04 18:34:00,68.5,19.0,29.85,NNW,327,6.0,6.0,15,0.00,,,-99.99,FreeWX-Wi 1.01,2013-02-04 23:34:00,
2013-02-04 18:39:00,68.2,18.9,29.85,NNW,329,6.0,6.3,15,0.00,,,-99.99,FreeWX-Wi 1.01,2013-02-04 23:39:00,
2013-02-04 18:44:00,67.8,18.5,29.85,NNW,329,6.0,6.0,15,0.00,,,-99.99,FreeWX-Wi 1.01,2013-02-04 23:44:00,
2013-02-04 18:49:00,67.5,18.1,29.85,NNW,330,6.0,6.0,15,0.00,,,-99.99,FreeWX-Wi 1.01,2013-02-04 23:49:00,
2013-02-04 18:54:00,67.3,18.1,29.85,NNW,334,5.0,5.0,15,0.00,,,-99.99,FreeWX-Wi 1.01,2013-02-04 23:54:00,
2013-02-04 18:59:00,66.9,17.8,29.85,NNW,335,5.0,5.0,15,0.00,,,-99.99,FreeWX-Wi 1.01,2013-02-04 23:59:00,
2013-02-04 19:04:00,66.6,17.4,29.85,NNW,336,5.0,8.3,15,0.00,,,-99.99,FreeWX-Wi 1.01,2013-02-05 00:04:00,
2013-02-04 19:09:00,66.2,17.2,29.88,NNW,339,5.0,7.2,15,0.00,,,-99.99,FreeWX-Wi 1.01,2013-02-05 00:09:00,
2013-02-04 19:14:00,65.8,16.9,29.88,NNW,340,5.0,5.8,15,0.00,,,-99.99,FreeWX-Wi 1.01,2013-02-05 00:14:00,
2013-02-04 19:19:00,65.5,16.7,29.88,NNW,343,5.0,6.3,15,0.00,,,-99.99,FreeWX-Wi 1.01,2013-02-05 00:19:00,
2013-02-04 19:24:00,64.8,16.0,29.88,NNW,343,5.0,5.0,15,0.00,,,-99.99,FreeWX-Wi 1.01,2013-02-05 00:24:00,
2013-02-04 19:29:00,63.9,16.9,29.88,NNW,346,4.0,4.0,16,0.00,,,-99.99,FreeWX-Wi 1.01,2013-02-05 00:29:00,
2013-02-04 19:34:00,62.6,15.8,29.88,NNW,348,4.0,4.9,16,0.00,,,-99.99,FreeWX-Wi 1.01,2013-02-05 00:34:00,
2013-02-04 19:39:00,61.7,15.1,29.88,North,352,4.0,4.0,16,0.00,,,-99.99,FreeWX-Wi 1.01,2013-02-05 00:39:00,
2013-02-04 19:44:00,61.0,14.5,29.88,North,355,4.0,0.0,16,0.00,,,-99.99,FreeWX-Wi 1.01,2013-02-05 00:44:00,
2013-02-04 19:49:00,60.3,15.3,29.88,North,357,4.0,0.0,17,0.00,,,-99.99,FreeWX-Wi 1.01,2013-02-05 00:49:00,
2013-02-04 19:54:00,59.7,14.9,29.88,North,3,3.0,0.0,17,0.00,,,-99.99,FreeWX-Wi 1.01,2013-02-05 00:54:00,
2013-02-04 19:59:00,59.2,14.4,29.88,North,6,3.0,0.0,17,0.00,,,-99.99,FreeWX-Wi 1.01,2013-02-05 00:59:00,
2013-02-04 20:04:00,58.3,13.6,29.88,North,9,2.0,0.0,17,0.00,,,-99.99,FreeWX-Wi 1.01,2013-02-05 01:04:00,
2013-02-04 20:09:00,57.9,13.5,29.91,North,11,2.0,0.0,17,0.00,,,-99.99,FreeWX-Wi 1.01,2013-02-05 01:09:00,
2013-02-04 20:14:00,57.6,13.1,29.91,NNE,14,2.0,3.1,17,0.00,,,-99.99,FreeWX-Wi 1.01,2013-02-05 01:14:00,
2013-02-04 20:19:00,57.6,13.1,29.91,NNE,14,2.0,4.0,17,0.00,,,-99.99,FreeWX-Wi 1.01,2013-02-05 01:19:00,
2013-02-04 20:24:00,57.4,12.9,29.91,NNE,14,2.0,3.6,17,0.00,,,-99.99,FreeWX-Wi 1.01,2013-02-05 01:24:00,
2013-02-04 20:29:00,57.2,12.7,29.91,NNE,16,2.0,5.4,17,0.00,,,-99.99,FreeWX-Wi 1.01,2013-02-05 01:29:00,
2013-02-04 20:34:00,57.2,12.7,29.91,NNE,16,2.0,5.4,17,0.00,,,-99.99,FreeWX-Wi 1.01,2013-02-05 01:34:00,
2013-02-04 20:39:00,56.8,12.6,29.91,NNE,17,2.0,0.0,17,0.00,,,-99.99,FreeWX-Wi 1.01,2013-02-05 01:39:00,
2013-02-04 20:44:00,55.9,11.8,29.91,NNE,19,2.0,3.1,17,0.00,,,-99.99,FreeWX-Wi 1.01,2013-02-05 01:44:00,
2013-02-04 20:49:00,54.9,12.2,29.91,NNE,21,2.0,0.0,18,0.00,,,-99.99,FreeWX-Wi 1.01,2013-02-05 01:49:00,
2013-02-04 20:54:00,54.0,11.5,29.91,NNE,23,1.0,0.0,18,0.00,,,-99.99,FreeWX-Wi 1.01,2013-02-05 01:54:00,
2013-02-04 20:59:00,53.2,10.9,29.91,NNE,25,1.0,0.0,18,0.00,,,-99.99,FreeWX-Wi 1.01,2013-02-05 01:59:00,
2013-02-04 21:04:00,53.1,10.8,29.91,NNE,25,1.0,0.0,18,0.00,,,-99.99,FreeWX-Wi 1.01,2013-02-05 02:04:00,
2013-02-04 21:09:00,53.1,10.8,29.91,NNE,25,1.0,3.1,18,0.00,,,-99.99,FreeWX-Wi 1.01,2013-02-05 02:09:00,
2013-02-04 21:14:00,53.2,10.9,29.91,NNE,24,1.0,4.0,18,0.00,,,-99.99,FreeWX-Wi 1.01,2013-02-05 02:14:00,
2013-02-04 21:19:00,52.9,10.6,29.91,NNE,24,1.0,3.6,18,0.00,,,-99.99,FreeWX-Wi 1.01,2013-02-05 02:19:00,
2013-02-04 21:24:00,52.7,10.4,29.91,NNE,23,1.0,4.0,18,0.00,,,-99.99,FreeWX-Wi 1.01,2013-02-05 02:24:00,
2013-02-04 21:29:00,52.9,10.6,29.91,NNE,22,1.0,6.3,18,0.00,,,-99.99,FreeWX-Wi 1.01,2013-02-05 02:29:00,
2013-02-04 21:34:00,52.7,10.4,29.91,NNE,22,1.0,4.9,18,0.00,,,-99.99,FreeWX-Wi 1.01,2013-02-05 02:34:00,
2013-02-04 21:39:00,52.5,10.2,29.94,NNE,22,1.0,0.0,18,0.00,,,-99.99,FreeWX-Wi 1.01,2013-02-05 02:39:00,
2013-02-04 21:44:00,52.3,10.0,29.94,NNE,20,1.0,4.9,18,0.00,,,-99.99,FreeWX-Wi 1.01,2013-02-05 02:44:00,
2013-02-04 21:49:00,52.2,13.5,29.94,NNE,17,2.0,5.8,21,0.00,,,-99.99,FreeWX-Wi 1.01,2013-02-05 02:49:00,
2013-02-04 21:54:00,52.0,13.3,29.94,NNE,16,2.0,4.0,21,0.00,,,-99.99,FreeWX-Wi 1.01,2013-02-05 02:54:00,
2013-02-04 21:59:00,51.8,13.1,29.94,NNE,15,2.0,3.6,21,0.00,,,-99.99,FreeWX-Wi 1.01,2013-02-05 02:59:00,
2013-02-04 22:04:00,51.6,12.9,29.94,NNE,16,2.0,2.7,21,0.00,,,-99.99,FreeWX-Wi 1.01,2013-02-05 03:04:00,
2013-02-04 22:09:00,51.1,12.6,29.94,NNE,17,2.0,2.7,21,0.00,,,-99.99,FreeWX-Wi 1.01,2013-02-05 03:09:00,
2013-02-04 22:14:00,50.7,12.2,29.94,NNE,18,2.0,4.9,21,0.00,,,-99.99,FreeWX-Wi 1.01,2013-02-05 03:14:00,
2013-02-04 22:19:00,50.2,11.8,29.94,NNE,19,2.0,2.7,21,0.00,,,-99.99,FreeWX-Wi 1.01,2013-02-05 03:19:00,
2013-02-04 22:24:00,49.1,10.9,29.94,NNE,19,2.0,3.1,21,0.00,,,-99.99,FreeWX-Wi 1.01,2013-02-05 03:24:00,
2013-02-04 22:29:00,48.7,10.6,29.94,NNE,19,2.0,2.7,21,0.00,,,-99.99,FreeWX-Wi 1.01,2013-02-05 03:29:00,
2013-02-04 22:34:00,48.7,10.6,29.94,NNE,20,2.0,3.1,21,0.00,,,-99.99,FreeWX-Wi 1.01,2013-02-05 03:34:00,
2013-02-04 22:39:00,48.9,13.8,29.94,NNE,19,2.0,4.0,24,0.00,,,-99.99,FreeWX-Wi 1.01,2013-02-05 03:39:00,
2013-02-04 22:44:00,48.9,15.6,29.94,NNE,20,2.0,3.6,26,0.00,,,-99.99,FreeWX-Wi 1.01,2013-02-05 03:44:00,
2013-02-04 22:49:00,48.9,16.3,29.94,NNE,20,2.0,5.4,27,0.00,,,-99.99,FreeWX-Wi 1.01,2013-02-05 03:49:00,
2013-02-04 22:54:00,49.3,17.6,29.94,NNE,20,2.0,5.4,28,0.00,,,-99.99,FreeWX-Wi 1.01,2013-02-05 03:54:00,
2013-02-04 22:59:00,49.6,18.0,29.94,NNE,20,2.0,5.4,28,0.00,,,-99.99,FreeWX-Wi 1.01,2013-02-05 03:59:00,
2013-02-04 23:04:00,49.8,18.0,29.94,NNE,20,3.0,5.4,28,0.00,,,-99.99,FreeWX-Wi 1.01,2013-02-05 04:04:00,
2013-02-04 23:09:00,49.3,17.6,29.94,NNE,20,3.0,3.6,28,0.00,,,-99.99,FreeWX-Wi 1.01,2013-02-05 04:09:00,
2013-02-04 23:14:00,49.1,17.4,29.94,NNE,20,3.0,4.0,28,0.00,,,-99.99,FreeWX-Wi 1.01,2013-02-05 04:14:00,
2013-02-04 23:19:00,48.7,17.1,29.94,NNE,21,3.0,3.1,28,0.00,,,-99.99,FreeWX-Wi 1.01,2013-02-05 04:19:00,
2013-02-04 23:24:00,48.7,17.1,29.94,NNE,21,3.0,3.0,28,0.00,,,-99.99,FreeWX-Wi 1.01,2013-02-05 04:24:00,
2013-02-04 23:30:00,48.7,17.1,29.94,NNE,21,3.0,3.0,28,0.00,,,-99.99,FreeWX-Wi 1.01,2013-02-05 04:30:00,
2013-02-04 23:35:00,48.9,17.2,29.94,NNE,20,3.0,5.8,28,0.00,,,-99.99,FreeWX-Wi 1.01,2013-02-05 04:35:00,
2013-02-04 23:40:00,48.9,17.2,29.94,NNE,20,3.0,3.0,28,0.00,,,-99.99,FreeWX-Wi 1.01,2013-02-05 04:40:00,
2013-02-04 23:45:00,48.9,18.1,29.94,NNE,20,3.0,0.0,29,0.00,,,-99.99,FreeWX-Wi 1.01,2013-02-05 04:45:00,
2013-02-04 23:50:00,48.9,18.1,29.94,NNE,21,3.0,4.0,29,0.00,,,-99.99,FreeWX-Wi 1.01,2013-02-05 04:50:00,
2013-02-04 23:55:00,48.9,18.1,29.94,NNE,21,3.0,4.9,29,0.00,,,-99.99,FreeWX-Wi 1.01,2013-02-05 04:55:00,